Location: Gälforsberget
(66.6500°N, 22.4167°E)
Time: 07:52:06
(UTC+00:00)

Cosmos 2322 - Pass Details

Date: 11 April 2026
Orbit: 839 x 854 km, 71.0° (Epoch: 13 May)

Event Time Altitude Azimuth Distance (km) Brightness Sun altitude
Rises 19:06:16 0° 182° (S) 3,416 6.5 -6.3°
Reaches altitude 10° 19:08:58 10° 172° (S) 2,485 5.7 -6.5°
Maximum altitude 19:13:51 30° 113° (ESE) 1,485 4.5 -6.8°
Drops below altitude 10° 19:18:46 10° 54° (NE) 2,499 6.0 -7.2°
Sets 19:21:29 0° 44° (NE) 3,439 6.9 -7.4°
